| time (UTC) | temp F | wind direction | speed MPH | gust MPH | rain 1hr in | rain 24hr in | rain mn in | humidity % | barometer mb |
| 20260903165401 | 94 | 214 | 6.0 | 6.0 | 0.00 | 0.00 | 0.00 | 56 | 1014.3 |
| 20260903164855 | 93 | 249 | 4.0 | 7.0 | 0.00 | 0.00 | 0.00 | 57 | 1014.4 |
| 20260903164351 | 94 | 346 | 2.0 | 6.0 | 0.00 | 0.00 | 0.00 | 57 | 1014.4 |
| 20260903163850 | 93 | 233 | 6.0 | 9.0 | 0.00 | 0.00 | 0.00 | 58 | 1014.4 |
| 20260903163347 | 94 | 271 | 5.0 | 6.0 | 0.00 | 0.00 | 0.00 | 59 | 1014.3 |
| 20260903162842 | 93 | 203 | 2.0 | 6.0 | 0.00 | 0.00 | 0.00 | 59 | 1014.6 |
| 20260903162339 | 93 | 271 | 0.0 | 5.0 | 0.00 | 0.00 | 0.00 | 59 | 1014.5 |
| 20260903161834 | 93 | 227 | 3.0 | 9.0 | 0.00 | 0.00 | 0.00 | 59 | 1014.5 |
| 20260903161329 | 93 | 245 | 2.0 | 6.0 | 0.00 | 0.00 | 0.00 | 60 | 1014.7 |
| 20260903160825 | 93 | 201 | 2.0 | 7.0 | 0.00 | 0.00 | 0.00 | 61 | 1014.6 |
| 20260903160324 | 92 | 215 | 3.0 | 5.0 | 0.00 | 0.00 | 0.00 | 63 | 1014.6 |
| 20260903155822 | 91 | 217 | 3.0 | 7.0 | 0.00 | 0.00 | 0.00 | 62 | 1014.4 |
| 20260903155318 | 91 | 236 | 2.0 | 8.0 | 0.00 | 0.00 | 0.00 | 62 | 1014.3 |
| 20260903154813 | 92 | 217 | 3.0 | 5.0 | 0.00 | 0.00 | 0.00 | 61 | 1014.7 |
| 20260903154310 | 91 | 319 | 3.0 | 6.0 | 0.00 | 0.00 | 0.00 | 63 | 1014.6 |
| 20260903153805 | 90 | 306 | 3.0 | 7.0 | 0.00 | 0.00 | 0.00 | 63 | 1014.7 |
| 20260903153301 | 91 | 296 | 3.0 | 8.0 | 0.00 | 0.00 | 0.00 | 63 | 1014.6 |
| 20260903152757 | 91 | 169 | 9.0 | 9.0 | 0.00 | 0.00 | 0.00 | 63 | 1014.7 |
| 20260903152252 | 90 | 198 | 3.0 | 6.0 | 0.00 | 0.00 | 0.00 | 65 | 1014.6 |
| 20260903151752 | 90 | 237 | 2.0 | 5.0 | 0.00 | 0.00 | 0.00 | 66 | 1014.7 |
| 20260903151247 | 89 | 222 | 4.0 | 6.0 | 0.00 | 0.00 | 0.00 | 68 | 1014.6 |
| 20260903150748 | 89 | 297 | 1.0 | 5.0 | 0.00 | 0.00 | 0.00 | 69 | 1014.7 |
| 20260903150242 | 87 | 237 | 3.0 | 5.0 | 0.00 | 0.00 | 0.00 | 71 | 1014.5 |
| 20260903145738 | 88 | 245 | 3.0 | 6.0 | 0.00 | 0.00 | 0.00 | 70 | 1014.6 |
| 20260903145233 | 86 | 248 | 4.0 | 8.0 | 0.00 | 0.00 | 0.00 | 73 | 1014.6 |
| 20260903144731 | 86 | 233 | 4.0 | 5.0 | 0.00 | 0.00 | 0.00 | 74 | 1014.5 |
| 20260903144227 | 85 | 243 | 3.0 | 5.0 | 0.00 | 0.00 | 0.00 | 75 | 1014.5 |
| 20260903143723 | 85 | 246 | 4.0 | 7.0 | 0.00 | 0.00 | 0.00 | 75 | 1014.6 |
| 20260903143219 | 86 | 215 | 5.0 | 5.0 | 0.00 | 0.00 | 0.00 | 74 | 1014.9 |
| 20260903142715 | 86 | 224 | 3.0 | 7.0 | 0.00 | 0.00 | 0.00 | 74 | 1014.7 |
| 20260903142211 | 86 | 284 | 3.0 | 7.0 | 0.00 | 0.00 | 0.00 | 74 | 1014.7 |
| 20260903141706 | 87 | 292 | 4.0 | 5.0 | 0.00 | 0.00 | 0.00 | 74 | 1014.9 |
| 20260903141201 | 86 | 242 | 4.0 | 8.0 | 0.00 | 0.00 | 0.00 | 75 | 1014.7 |
| 20260903140657 | 86 | 269 | 1.0 | 6.0 | 0.00 | 0.00 | 0.00 | 76 | 1014.7 |
| 20260903140152 | 86 | 249 | 3.0 | 4.0 | 0.00 | 0.00 | 0.00 | 76 | 1014.6 |
| 20260903135647 | 84 | 284 | 5.0 | 5.0 | 0.00 | 0.00 | 0.00 | 77 | 1014.4 |
| 20260903135142 | 84 | 263 | 4.0 | 5.0 | 0.00 | 0.00 | 0.00 | 78 | 1014.7 |
| 20260903134641 | 84 | 284 | 1.0 | 5.0 | 0.00 | 0.00 | 0.00 | 79 | 1014.6 |
| 20260903134137 | 85 | 233 | 3.0 | 5.0 | 0.00 | 0.00 | 0.00 | 77 | 1014.9 |
| 20260903133635 | 85 | 266 | 3.0 | 4.0 | 0.00 | 0.00 | 0.00 | 77 | 1014.9 |
| 20260903133130 | 85 | 265 | 2.0 | 5.0 | 0.00 | 0.00 | 0.00 | 77 | 1014.7 |
| 20260903132625 | 85 | 217 | 4.0 | 4.0 | 0.00 | 0.00 | 0.00 | 77 | 1015.1 |
| 20260903132119 | 84 | 31 | 2.0 | 4.0 | 0.00 | 0.00 | 0.00 | 80 | 1014.9 |
| 20260903131614 | 83 | 262 | 2.0 | 6.0 | 0.00 | 0.00 | 0.00 | 81 | 1014.9 |
| 20260903131113 | 82 | 315 | 2.0 | 5.0 | 0.00 | 0.00 | 0.00 | 82 | 1015.0 |
| 20260903130609 | 82 | 237 | 3.0 | 3.0 | 0.00 | 0.00 | 0.00 | 83 | 1014.9 |
| 20260903125601 | 81 | 277 | 3.0 | 4.0 | 0.00 | 0.00 | 0.00 | 85 | 1014.9 |
| 20260903125056 | 81 | 202 | 2.0 | 5.0 | 0.00 | 0.00 | 0.00 | 85 | 1014.6 |
| 20260903124551 | 81 | 233 | 2.0 | 5.0 | 0.00 | 0.00 | 0.00 | 85 | 1014.6 |
| 20260903124051 | 81 | 289 | 3.0 | 3.0 | 0.00 | 0.00 | 0.00 | 85 | 1014.6 |
| 20260903123549 | 81 | 3 | 0.0 | 5.0 | 0.00 | 0.00 | 0.00 | 85 | 1014.5 |
| 20260903123049 | 81 | 289 | 2.0 | 3.0 | 0.00 | 0.00 | 0.00 | 85 | 1014.5 |
| 20260903122543 | 81 | 245 | 1.0 | 3.0 | 0.00 | 0.00 | 0.00 | 85 | 1014.3 |
| 20260903122043 | 81 | 320 | 2.0 | 5.0 | 0.00 | 0.00 | 0.00 | 85 | 1014.3 |
| 20260903121537 | 81 | 259 | 5.0 | 6.0 | 0.00 | 0.00 | 0.00 | 85 | 1014.4 |
| 20260903121033 | 81 | 31 | 0.0 | 3.0 | 0.00 | 0.00 | 0.00 | 85 | 1014.1 |
| 20260903120532 | 81 | 96 | 1.0 | 3.0 | 0.00 | 0.00 | 0.00 | 85 | 1014.2 |
| 20260903120027 | 81 | 161 | 3.0 | 7.0 | 0.00 | 0.00 | 0.00 | 85 | 1014.3 |
| 20260903115525 | 81 | 289 | 2.0 | 3.0 | 0.00 | 0.00 | 0.00 | 85 | 1014.3 |
| 20260903115020 | 81 | 171 | 3.0 | 4.0 | 0.00 | 0.00 | 0.00 | 85 | 1014.1 |
| 20260903114515 | 81 | 250 | 0.0 | 6.0 | 0.00 | 0.00 | 0.00 | 85 | 1014.2 |
| 20260903114011 | 81 | 280 | 3.0 | 3.0 | 0.00 | 0.00 | 0.00 | 85 | 1014.3 |
| 20260903113506 | 81 | 344 | 0.0 | 5.0 | 0.00 | 0.00 | 0.00 | 85 | 1014.1 |
| 20260903113002 | 81 | 288 | 0.0 | 3.0 | 0.00 | 0.00 | 0.00 | 86 | 1014.3 |
| 20260903112458 | 81 | 60 | 1.0 | 5.0 | 0.00 | 0.00 | 0.00 | 86 | 1014.0 |
| 20260903111957 | 81 | 302 | 0.0 | 3.0 | 0.00 | 0.00 | 0.00 | 86 | 1014.0 |
| 20260903111451 | 81 | 310 | 2.0 | 3.0 | 0.00 | 0.00 | 0.00 | 86 | 1014.1 |
| 20260903110947 | 81 | 245 | 0.0 | 3.0 | 0.00 | 0.00 | 0.00 | 86 | 1014.2 |
| 20260903110443 | 81 | 283 | 2.0 | 4.0 | 0.00 | 0.00 | 0.00 | 86 | 1014.3 |
| 20260903105937 | 81 | 299 | 3.0 | 6.0 | 0.00 | 0.00 | 0.00 | 86 | 1014.1 |
| 20260903105433 | 81 | 16 | 1.0 | 3.0 | 0.00 | 0.00 | 0.00 | 87 | 1014.1 |
| 20260903104932 | 81 | 12 | 0.0 | 3.0 | 0.00 | 0.00 | 0.00 | 87 | 1013.9 |
| 20260903104432 | 81 | 261 | 1.0 | 5.0 | 0.00 | 0.00 | 0.00 | 86 | 1014.1 |
| 20260903103929 | 81 | 344 | 0.0 | 5.0 | 0.00 | 0.00 | 0.00 | 86 | 1013.9 |
| 20260903103424 | 81 | 241 | 2.0 | 4.0 | 0.00 | 0.00 | 0.00 | 86 | 1014.2 |
| 20260903102920 | 81 | 83 | 2.0 | 5.0 | 0.00 | 0.00 | 0.00 | 86 | 1013.9 |
| 20260903102415 | 81 | 134 | 1.0 | 3.0 | 0.00 | 0.00 | 0.00 | 86 | 1013.8 |
| 20260903101914 | 81 | 73 | 2.0 | 3.0 | 0.00 | 0.00 | 0.00 | 87 | 1014.1 |
| 20260903101409 | 81 | 314 | 0.0 | 2.0 | 0.00 | 0.00 | 0.00 | 86 | 1014.1 |
| 20260903100904 | 81 | 29 | 2.0 | 3.0 | 0.00 | 0.00 | 0.00 | 86 | 1014.0 |
| 20260903100359 | 81 | 348 | 2.0 | 4.0 | 0.00 | 0.00 | 0.00 | 87 | 1014.1 |
| 20260903095856 | 81 | 243 | 3.0 | 3.0 | 0.00 | 0.00 | 0.00 | 87 | 1014.1 |
| 20260903095351 | 81 | 309 | 0.0 | 4.0 | 0.00 | 0.00 | 0.00 | 87 | 1014.1 |
| 20260903094846 | 81 | 254 | 0.0 | 4.0 | 0.00 | 0.00 | 0.00 | 87 | 1014.2 |
| 20260903094345 | 81 | 222 | 0.0 | 3.0 | 0.00 | 0.00 | 0.00 | 86 | 1014.0 |
| 20260903093842 | 81 | 226 | 3.0 | 4.0 | 0.00 | 0.00 | 0.00 | 86 | 1014.1 |
| 20260903093337 | 81 | 206 | 3.0 | 5.0 | 0.00 | 0.00 | 0.00 | 86 | 1014.2 |
| 20260903092832 | 81 | 274 | 1.0 | 5.0 | 0.00 | 0.00 | 0.00 | 86 | 1014.1 |
| 20260903092326 | 81 | 175 | 0.0 | 3.0 | 0.00 | 0.00 | 0.00 | 86 | 1014.2 |
| 20260903091825 | 81 | 197 | 0.0 | 3.0 | 0.00 | 0.00 | 0.00 | 86 | 1014.1 |
| 20260903091319 | 81 | 341 | 0.0 | 4.0 | 0.00 | 0.00 | 0.00 | 87 | 1014.2 |
| 20260903090815 | 81 | 215 | 0.0 | 3.0 | 0.00 | 0.00 | 0.00 | 87 | 1014.1 |
| 20260903090315 | 81 | 298 | 1.0 | 3.0 | 0.00 | 0.00 | 0.00 | 87 | 1014.1 |
| 20260903085813 | 81 | 310 | 0.0 | 3.0 | 0.00 | 0.00 | 0.00 | 87 | 1014.0 |
| 20260903085307 | 81 | 168 | 1.0 | 3.0 | 0.00 | 0.00 | 0.00 | 87 | 1014.3 |
| 20260903084806 | 81 | 277 | 1.0 | 5.0 | 0.00 | 0.00 | 0.00 | 87 | 1014.1 |
| 20260903084300 | 81 | 261 | 0.0 | 3.0 | 0.00 | 0.00 | 0.00 | 87 | 1014.2 |
| 20260903083755 | 81 | 269 | 0.0 | 3.0 | 0.00 | 0.00 | 0.00 | 87 | 1014.3 |
| 20260903083250 | 81 | 205 | 3.0 | 4.0 | 0.00 | 0.00 | 0.00 | 86 | 1014.2 |
| 20260903082749 | 81 | 196 | 2.0 | 4.0 | 0.00 | 0.00 | 0.00 | 86 | 1014.4 |
| 20260903082245 | 81 | 284 | 1.0 | 3.0 | 0.00 | 0.00 | 0.00 | 86 | 1014.4 |
| 20260903081745 | 81 | 289 | 3.0 | 4.0 | 0.00 | 0.00 | 0.00 | 86 | 1014.3 |
| 20260903081241 | 81 | 333 | 2.0 | 5.0 | 0.00 | 0.00 | 0.00 | 86 | 1014.5 |
| 20260903080737 | 81 | 222 | 0.0 | 5.0 | 0.00 | 0.00 | 0.00 | 86 | 1014.4 |
| 20260903080234 | 81 | 198 | 1.0 | 5.0 | 0.00 | 0.00 | 0.00 | 86 | 1014.1 |
| 20260903075734 | 81 | 196 | 3.0 | 6.0 | 0.00 | 0.00 | 0.00 | 86 | 1014.4 |
| 20260903075229 | 81 | 323 | 0.0 | 2.0 | 0.00 | 0.00 | 0.00 | 86 | 1014.3 |
| 20260903074728 | 81 | 289 | 2.0 | 2.0 | 0.00 | 0.00 | 0.00 | 85 | 1014.5 |
| 20260903074223 | 81 | 196 | 0.0 | 3.0 | 0.00 | 0.00 | 0.00 | 86 | 1014.5 |
| 20260903073718 | 81 | 313 | 1.0 | 2.0 | 0.00 | 0.00 | 0.00 | 85 | 1014.5 |
| 20260903073214 | 81 | 296 | 1.0 | 2.0 | 0.00 | 0.00 | 0.00 | 85 | 1014.5 |
| 20260903072709 | 81 | 301 | 1.0 | 3.0 | 0.00 | 0.00 | 0.00 | 85 | 1014.7 |
| 20260903072206 | 81 | 302 | 1.0 | 3.0 | 0.00 | 0.00 | 0.00 | 85 | 1014.5 |
| 20260903071702 | 81 | 282 | 0.0 | 3.0 | 0.00 | 0.00 | 0.00 | 85 | 1014.6 |
| 20260903071157 | 81 | 178 | 1.0 | 4.0 | 0.00 | 0.00 | 0.00 | 84 | 1014.7 |
| 20260903070656 | 81 | 268 | 1.0 | 3.0 | 0.00 | 0.00 | 0.00 | 84 | 1014.6 |
| 20260903070153 | 80 | 274 | 1.0 | 3.0 | 0.00 | 0.00 | 0.00 | 84 | 1014.5 |
| 20260903065647 | 81 | 180 | 1.0 | 3.0 | 0.00 | 0.00 | 0.00 | 84 | 1014.6 |
| 20260903065141 | 81 | 296 | 2.0 | 4.0 | 0.00 | 0.00 | 0.00 | 83 | 1014.9 |
| 20260903064640 | 81 | 230 | 3.0 | 4.0 | 0.00 | 0.00 | 0.00 | 83 | 1014.7 |
| 20260903064136 | 81 | 245 | 1.0 | 3.0 | 0.00 | 0.00 | 0.00 | 83 | 1014.6 |
| 20260903063632 | 81 | 278 | 1.0 | 3.0 | 0.00 | 0.00 | 0.00 | 82 | 1014.7 |
| 20260903063132 | 81 | 203 | 1.0 | 5.0 | 0.00 | 0.00 | 0.00 | 82 | 1014.6 |
| 20260903062628 | 81 | 201 | 2.0 | 3.0 | 0.00 | 0.00 | 0.00 | 82 | 1014.3 |
| 20260903062123 | 81 | 235 | 0.0 | 4.0 | 0.00 | 0.00 | 0.00 | 81 | 1014.3 |
| 20260903061618 | 81 | 285 | 0.0 | 2.0 | 0.00 | 0.00 | 0.00 | 81 | 1015.0 |
| 20260903061118 | 81 | 229 | 0.0 | 2.0 | 0.00 | 0.00 | 0.00 | 81 | 1014.7 |
| 20260903060613 | 82 | 205 | 0.0 | 2.0 | 0.00 | 0.00 | 0.00 | 80 | 1014.9 |
| 20260903060108 | 82 | 280 | 2.0 | 2.0 | 0.00 | 0.00 | 0.00 | 80 | 1014.6 |
| 20260903055606 | 82 | 273 | 1.0 | 3.0 | 0.00 | 0.00 | 0.00 | 80 | 1014.5 |
| 20260903055104 | 82 | 196 | 1.0 | 3.0 | 0.00 | 0.00 | 0.00 | 79 | 1014.9 |
| 20260903054559 | 82 | 179 | 2.0 | 5.0 | 0.00 | 0.00 | 0.00 | 79 | 1014.9 |
| 20260903054055 | 82 | 12 | 0.0 | 3.0 | 0.00 | 0.00 | 0.00 | 78 | 1014.7 |
| 20260903053550 | 82 | 175 | 1.0 | 3.0 | 0.00 | 0.00 | 0.00 | 77 | 1015.0 |
| 20260903053047 | 83 | 149 | 2.0 | 5.0 | 0.00 | 0.00 | 0.00 | 76 | 1015.0 |
| 20260903052542 | 83 | 117 | 3.0 | 5.0 | 0.00 | 0.00 | 0.00 | 75 | 1015.1 |
| 20260903052038 | 83 | 140 | 3.0 | 6.0 | 0.00 | 0.00 | 0.00 | 74 | 1015.2 |
| 20260903051537 | 83 | 182 | 0.0 | 5.0 | 0.00 | 0.00 | 0.00 | 73 | 1014.9 |
| 20260903051033 | 84 | 200 | 1.0 | 3.0 | 0.00 | 0.00 | 0.00 | 72 | 1014.6 |
| 20260903050532 | 84 | 142 | 2.0 | 11.0 | 0.00 | 0.00 | 0.00 | 71 | 1014.4 |
| 20260903050028 | 84 | 144 | 4.0 | 5.0 | 0.00 | 0.00 | 0.00 | 70 | 1014.6 |
| 20260903045527 | 84 | 240 | 2.0 | 3.0 | 0.00 | 0.00 | 0.00 | 69 | 1014.7 |
| 20260903045024 | 84 | 153 | 3.0 | 4.0 | 0.00 | 0.00 | 0.00 | 67 | 1014.3 |
| 20260903044520 | 84 | 294 | 2.0 | 3.0 | 0.00 | 0.00 | 0.00 | 67 | 1014.6 |
| 20260903044015 | 85 | 130 | 0.0 | 5.0 | 0.00 | 0.00 | 0.00 | 65 | 1014.3 |
| 20260903043511 | 85 | 139 | 1.0 | 5.0 | 0.00 | 0.00 | 0.00 | 64 | 1014.6 |
| 20260903043010 | 85 | 110 | 3.0 | 5.0 | 0.00 | 0.00 | 0.00 | 63 | 1014.3 |
| 20260903042504 | 86 | 138 | 3.0 | 8.0 | 0.00 | 0.00 | 0.00 | 62 | 1014.2 |
| 20260903042000 | 86 | 134 | 0.0 | 5.0 | 0.00 | 0.00 | 0.00 | 61 | 1014.1 |
| 20260903041457 | 87 | 89 | 0.0 | 9.0 | 0.00 | 0.00 | 0.00 | 59 | 1014.2 |
| 20260903040952 | 87 | 188 | 2.0 | 6.0 | 0.00 | 0.00 | 0.00 | 57 | 1013.9 |
| 20260903040450 | 88 | 168 | 3.0 | 7.0 | 0.00 | 0.00 | 0.00 | 56 | 1013.9 |
| 20260903035948 | 88 | 303 | 1.0 | 6.0 | 0.00 | 0.00 | 0.00 | 56 | 1014.0 |
| 20260903035442 | 88 | 235 | 2.0 | 7.0 | 0.00 | 0.00 | 0.00 | 54 | 1014.2 |
| 20260903034937 | 89 | 108 | 1.0 | 7.0 | 0.00 | 0.00 | 0.00 | 54 | 1013.9 |
| 20260903034432 | 89 | 133 | 6.0 | 8.0 | 0.00 | 0.00 | 0.00 | 56 | 1013.8 |
| 20260903033927 | 89 | 112 | 9.0 | 10.0 | 0.00 | 0.00 | 0.00 | 58 | 1013.8 |
| 20260903033423 | 89 | 149 | 5.0 | 9.0 | 0.00 | 0.00 | 0.00 | 59 | 1013.9 |
| 20260903032918 | 90 | 145 | 5.0 | 5.0 | 0.00 | 0.00 | 0.00 | 59 | 1013.6 |
| 20260903032413 | 90 | 98 | 3.0 | 4.0 | 0.00 | 0.00 | 0.00 | 59 | 1013.6 |
| 20260903031908 | 90 | 115 | 1.0 | 4.0 | 0.00 | 0.00 | 0.00 | 58 | 1013.6 |
| 20260903031407 | 90 | 123 | 2.0 | 4.0 | 0.00 | 0.00 | 0.00 | 57 | 1013.5 |
| 20260903030903 | 90 | 146 | 0.0 | 2.0 | 0.00 | 0.00 | 0.00 | 55 | 1013.3 |
| 20260903030359 | 91 | 174 | 0.0 | 4.0 | 0.00 | 0.00 | 0.00 | 55 | 1013.0 |
| 20260903025854 | 91 | 115 | 3.0 | 4.0 | 0.00 | 0.00 | 0.00 | 54 | 1012.9 |
| 20260903025349 | 91 | 161 | 1.0 | 5.0 | 0.00 | 0.00 | 0.00 | 52 | 1012.9 |
| 20260903024844 | 92 | 124 | 3.0 | 9.0 | 0.00 | 0.00 | 0.00 | 50 | 1012.9 |
| 20260903024338 | 91 | 141 | 0.0 | 0.0 | 0.00 | 0.00 | 0.00 | 51 | 1012.6 |
| 20260903023833 | 91 | 309 | 0.0 | 0.0 | 0.00 | 0.00 | 0.00 | 51 | 1012.5 |
| 20260903023329 | 91 | 309 | 0.0 | 0.0 | 0.00 | 0.00 | 0.00 | 51 | 1012.5 |
| 20260903022824 | 91 | 269 | 0.0 | 0.0 | 0.00 | 0.00 | 0.00 | 51 | 1012.5 |
| 20260903022323 | 90 | 309 | 0.0 | 0.0 | 0.00 | 0.00 | 0.00 | 51 | 1012.2 |
| 20260903021817 | 91 | 309 | 0.0 | 1.0 | 0.00 | 0.00 | 0.00 | 50 | 1012.2 |
| 20260903021313 | 91 | 315 | 0.0 | 0.0 | 0.00 | 0.00 | 0.00 | 50 | 1012.2 |
| 20260903020812 | 92 | 284 | 0.0 | 0.0 | 0.00 | 0.00 | 0.00 | 49 | 1012.1 |
| 20260903020307 | 92 | 186 | 0.0 | 1.0 | 0.00 | 0.00 | 0.00 | 49 | 1011.7 |
| 20260903015803 | 92 | 76 | 0.0 | 2.0 | 0.00 | 0.00 | 0.00 | 49 | 1012.1 |
| 20260903015258 | 93 | 130 | 0.0 | 2.0 | 0.00 | 0.00 | 0.00 | 49 | 1011.8 |
| 20260903014753 | 93 | 133 | 0.0 | 1.0 | 0.00 | 0.00 | 0.00 | 49 | 1011.8 |
| 20260903014253 | 93 | 129 | 0.0 | 1.0 | 0.00 | 0.00 | 0.00 | 49 | 1011.8 |
| 20260903013748 | 93 | 297 | 0.0 | 2.0 | 0.00 | 0.00 | 0.00 | 48 | 1011.7 |
| 20260903013247 | 93 | 226 | 1.0 | 1.0 | 0.00 | 0.00 | 0.00 | 48 | 1011.8 |
| 20260903012745 | 93 | 153 | 0.0 | 2.0 | 0.00 | 0.00 | 0.00 | 48 | 1011.8 |
| 20260903012240 | 93 | 337 | 0.0 | 3.0 | 0.00 | 0.00 | 0.00 | 48 | 1011.8 |
| 20260903011739 | 93 | 327 | 2.0 | 3.0 | 0.00 | 0.00 | 0.00 | 48 | 1011.6 |
| 20260903011233 | 94 | 298 | 2.0 | 4.0 | 0.00 | 0.00 | 0.00 | 47 | 1011.6 |
| 20260903010730 | 94 | 315 | 1.0 | 2.0 | 0.00 | 0.00 | 0.00 | 46 | 1011.5 |
| 20260903010229 | 94 | 302 | 3.0 | 3.0 | 0.00 | 0.00 | 0.00 | 46 | 1011.5 |
| 20260903005728 | 94 | 250 | 1.0 | 2.0 | 0.00 | 0.00 | 0.00 | 45 | 1011.7 |
| 20260903005223 | 95 | 306 | 0.0 | 3.0 | 0.00 | 0.00 | 0.00 | 45 | 1011.7 |
| 20260903004719 | 95 | 215 | 0.0 | 3.0 | 0.00 | 0.00 | 0.00 | 44 | 1011.5 |
| 20260903004214 | 96 | 315 | 4.0 | 4.0 | 0.00 | 0.00 | 0.00 | 42 | 1011.5 |
| 20260903003710 | 97 | 273 | 1.0 | 2.0 | 0.00 | 0.00 | 0.00 | 40 | 1011.4 |
| 20260903003205 | 97 | 277 | 2.0 | 3.0 | 0.00 | 0.00 | 0.00 | 38 | 1011.5 |
| 20260903002700 | 98 | 281 | 2.0 | 3.0 | 0.00 | 0.00 | 0.00 | 38 | 1011.3 |
| 20260903002154 | 98 | 278 | 2.0 | 3.0 | 0.00 | 0.00 | 0.00 | 38 | 1011.3 |
| 20260903001649 | 99 | 259 | 3.0 | 3.0 | 0.00 | 0.00 | 0.00 | 36 | 1011.4 |
| 20260903001143 | 100 | 275 | 2.0 | 3.0 | 0.00 | 0.00 | 0.00 | 36 | 1011.4 |
| 20260903000639 | 101 | 262 | 3.0 | 5.0 | 0.00 | 0.00 | 0.00 | 35 | 1011.8 |
| 20260903000138 | 103 | 269 | 2.0 | 3.0 | 0.00 | 0.00 | 0.00 | 34 | 1011.4 |
| 20260902235637 | 103 | 267 | 2.0 | 4.0 | 0.00 | 0.00 | 0.00 | 32 | 1011.6 |
| 20260902235132 | 104 | 277 | 2.0 | 5.0 | 0.00 | 0.00 | 0.00 | 32 | 1011.6 |
| 20260902234626 | 103 | 247 | 3.0 | 3.0 | 0.00 | 0.00 | 0.00 | 33 | 1011.4 |
| 20260902234124 | 102 | 269 | 2.0 | 5.0 | 0.00 | 0.00 | 0.00 | 33 | 1011.5 |
| 20260902233620 | 102 | 269 | 2.0 | 5.0 | 0.00 | 0.00 | 0.00 | 32 | 1011.7 |
| 20260902233114 | 102 | 328 | 0.0 | 4.0 | 0.00 | 0.00 | 0.00 | 33 | 1011.6 |
| 20260902232614 | 102 | 274 | 3.0 | 4.0 | 0.00 | 0.00 | 0.00 | 33 | 1011.6 |
| 20260902232108 | 104 | 275 | 2.0 | 4.0 | 0.00 | 0.00 | 0.00 | 33 | 1011.6 |
| 20260902231608 | 104 | 272 | 2.0 | 5.0 | 0.00 | 0.00 | 0.00 | 32 | 1011.6 |
| 20260902231107 | 105 | 271 | 2.0 | 4.0 | 0.00 | 0.00 | 0.00 | 32 | 1011.6 |
| 20260902230602 | 104 | 272 | 2.0 | 4.0 | 0.00 | 0.00 | 0.00 | 33 | 1011.8 |
| 20260902230101 | 104 | 281 | 2.0 | 3.0 | 0.00 | 0.00 | 0.00 | 32 | 1011.6 |
| 20260902225556 | 105 | 257 | 4.0 | 7.0 | 0.00 | 0.00 | 0.00 | 33 | 1011.6 |
| 20260902225056 | 104 | 278 | 3.0 | 3.0 | 0.00 | 0.00 | 0.00 | 33 | 1011.7 |
| 20260902224554 | 104 | 227 | 0.0 | 3.0 | 0.00 | 0.00 | 0.00 | 33 | 1011.7 |
| 20260902224050 | 104 | 331 | 3.0 | 4.0 | 0.00 | 0.00 | 0.00 | 33 | 1011.7 |
| 20260902223547 | 105 | 277 | 4.0 | 4.0 | 0.00 | 0.00 | 0.00 | 32 | 1011.8 |
| 20260902223046 | 104 | 283 | 2.0 | 3.0 | 0.00 | 0.00 | 0.00 | 34 | 1011.6 |
| 20260902222544 | 102 | 278 | 3.0 | 3.0 | 0.00 | 0.00 | 0.00 | 35 | 1011.6 |
| 20260902222044 | 105 | 259 | 2.0 | 3.0 | 0.00 | 0.00 | 0.00 | 33 | 1011.5 |
| 20260902221538 | 104 | 241 | 5.0 | 6.0 | 0.00 | 0.00 | 0.00 | 33 | 1011.7 |
| 20260902221033 | 103 | 250 | 3.0 | 5.0 | 0.00 | 0.00 | 0.00 | 34 | 1011.8 |
| 20260902220528 | 102 | 252 | 0.0 | 2.0 | 0.00 | 0.00 | 0.00 | 35 | 1011.8 |
| 20260902220023 | 102 | 298 | 3.0 | 6.0 | 0.00 | 0.00 | 0.00 | 34 | 1011.5 |
| 20260902215519 | 105 | 247 | 2.0 | 5.0 | 0.00 | 0.00 | 0.00 | 32 | 1011.6 |
| 20260902215015 | 104 | 276 | 2.0 | 4.0 | 0.00 | 0.00 | 0.00 | 33 | 1011.9 |
| 20260902214514 | 103 | 287 | 1.0 | 5.0 | 0.00 | 0.00 | 0.00 | 34 | 1011.8 |
| 20260902214013 | 102 | 179 | 2.0 | 4.0 | 0.00 | 0.00 | 0.00 | 35 | 1011.8 |
| 20260902213509 | 102 | 201 | 0.0 | 4.0 | 0.00 | 0.00 | 0.00 | 35 | 1011.9 |
| 20260902213008 | 103 | 280 | 0.0 | 4.0 | 0.00 | 0.00 | 0.00 | 34 | 1011.9 |
| 20260902212504 | 101 | 254 | 3.0 | 3.0 | 0.00 | 0.00 | 0.00 | 35 | 1012.1 |
| 20260902212000 | 101 | 107 | 2.0 | 5.0 | 0.00 | 0.00 | 0.00 | 36 | 1012.1 |
| 20260902211455 | 104 | 268 | 4.0 | 4.0 | 0.00 | 0.00 | 0.00 | 34 | 1012.1 |
| 20260902210950 | 102 | 260 | 3.0 | 6.0 | 0.00 | 0.00 | 0.00 | 35 | 1012.2 |
| 20260902210445 | 103 | 304 | 1.0 | 4.0 | 0.00 | 0.00 | 0.00 | 36 | 1012.2 |
| 20260902205943 | 103 | 271 | 3.0 | 8.0 | 0.00 | 0.00 | 0.00 | 36 | 1012.5 |
| 20260902205439 | 103 | 304 | 3.0 | 4.0 | 0.00 | 0.00 | 0.00 | 35 | 1012.4 |
| 20260902204934 | 103 | 242 | 3.0 | 7.0 | 0.00 | 0.00 | 0.00 | 36 | 1012.4 |
| 20260902204434 | 102 | 252 | 1.0 | 4.0 | 0.00 | 0.00 | 0.00 | 37 | 1012.3 |
| 20260902203929 | 102 | 227 | 5.0 | 5.0 | 0.00 | 0.00 | 0.00 | 37 | 1012.4 |
| 20260902203425 | 101 | 273 | 3.0 | 5.0 | 0.00 | 0.00 | 0.00 | 38 | 1012.7 |
| 20260902202924 | 101 | 248 | 6.0 | 6.0 | 0.00 | 0.00 | 0.00 | 38 | 1012.6 |
| 20260902202420 | 102 | 327 | 3.0 | 5.0 | 0.00 | 0.00 | 0.00 | 38 | 1012.9 |
| 20260902201916 | 101 | 262 | 3.0 | 5.0 | 0.00 | 0.00 | 0.00 | 38 | 1012.7 |
| 20260902201411 | 100 | 304 | 3.0 | 5.0 | 0.00 | 0.00 | 0.00 | 38 | 1012.9 |
| 20260902200906 | 102 | 293 | 3.0 | 5.0 | 0.00 | 0.00 | 0.00 | 38 | 1013.1 |
| 20260902200401 | 102 | 264 | 5.0 | 6.0 | 0.00 | 0.00 | 0.00 | 38 | 1012.9 |
| 20260902195856 | 101 | 277 | 3.0 | 7.0 | 0.00 | 0.00 | 0.00 | 40 | 1013.4 |
| 20260902195355 | 99 | 221 | 2.0 | 3.0 | 0.00 | 0.00 | 0.00 | 40 | 1013.2 |
| 20260902194850 | 100 | 329 | 2.0 | 3.0 | 0.00 | 0.00 | 0.00 | 39 | 1013.5 |
| 20260902194345 | 101 | 296 | 3.0 | 5.0 | 0.00 | 0.00 | 0.00 | 40 | 1013.4 |
| 20260902193840 | 100 | 105 | 2.0 | 4.0 | 0.00 | 0.00 | 0.00 | 40 | 1013.6 |
| 20260902193336 | 99 | 306 | 0.0 | 3.0 | 0.00 | 0.00 | 0.00 | 43 | 1013.7 |
| 20260902192834 | 100 | 283 | 3.0 | 4.0 | 0.00 | 0.00 | 0.00 | 43 | 1013.8 |
| 20260902192328 | 100 | 197 | 1.0 | 4.0 | 0.00 | 0.00 | 0.00 | 40 | 1013.7 |
| 20260902191828 | 99 | 228 | 2.0 | 3.0 | 0.00 | 0.00 | 0.00 | 42 | 1014.0 |
| 20260902191323 | 99 | 262 | 0.0 | 4.0 | 0.00 | 0.00 | 0.00 | 41 | 1014.0 |
| 20260902190819 | 99 | 133 | 3.0 | 9.0 | 0.00 | 0.00 | 0.00 | 42 | 1014.2 |
| 20260902190318 | 100 | 244 | 2.0 | 6.0 | 0.00 | 0.00 | 0.00 | 41 | 1014.1 |
| 20260902185814 | 100 | 345 | 0.0 | 5.0 | 0.00 | 0.00 | 0.00 | 42 | 1014.3 |
| 20260902185309 | 100 | 247 | 4.0 | 5.0 | 0.00 | 0.00 | 0.00 | 42 | 1014.2 |
| 20260902184805 | 99 | 279 | 3.0 | 8.0 | 0.00 | 0.00 | 0.00 | 43 | 1014.5 |
| 20260902184300 | 99 | 302 | 2.0 | 9.0 | 0.00 | 0.00 | 0.00 | 42 | 1014.5 |
| 20260902183756 | 100 | 316 | 2.0 | 3.0 | 0.00 | 0.00 | 0.00 | 42 | 1014.5 |
| 20260902183252 | 99 | 302 | 3.0 | 4.0 | 0.00 | 0.00 | 0.00 | 44 | 1014.7 |
| 20260902182748 | 99 | 256 | 4.0 | 4.0 | 0.00 | 0.00 | 0.00 | 42 | 1014.7 |
| 20260902182244 | 98 | 156 | 2.0 | 4.0 | 0.00 | 0.00 | 0.00 | 45 | 1015.1 |
| 20260902181740 | 98 | 231 | 2.0 | 5.0 | 0.00 | 0.00 | 0.00 | 44 | 1015.0 |
| 20260902181240 | 98 | 217 | 1.0 | 5.0 | 0.00 | 0.00 | 0.00 | 43 | 1015.2 |
| 20260902180735 | 98 | 245 | 3.0 | 5.0 | 0.00 | 0.00 | 0.00 | 45 | 1015.2 |
| 20260902180230 | 98 | 241 | 3.0 | 3.0 | 0.00 | 0.00 | 0.00 | 45 | 1015.3 |
| 20260902175725 | 98 | 262 | 4.0 | 5.0 | 0.00 | 0.00 | 0.00 | 46 | 1015.6 |
| 20260902175221 | 97 | 243 | 2.0 | 4.0 | 0.00 | 0.00 | 0.00 | 47 | 1015.7 |
| 20260902174717 | 98 | 242 | 3.0 | 3.0 | 0.00 | 0.00 | 0.00 | 47 | 1015.5 |
| 20260902174213 | 97 | 252 | 2.0 | 8.0 | 0.00 | 0.00 | 0.00 | 47 | 1015.8 |
| 20260902173708 | 97 | 295 | 3.0 | 5.0 | 0.00 | 0.00 | 0.00 | 51 | 1015.8 |
| 20260902173202 | 97 | 224 | 2.0 | 4.0 | 0.00 | 0.00 | 0.00 | 47 | 1016.1 |
| 20260902172657 | 96 | 234 | 1.0 | 6.0 | 0.00 | 0.00 | 0.00 | 49 | 1016.0 |
| 20260902172156 | 97 | 254 | 0.0 | 4.0 | 0.00 | 0.00 | 0.00 | 51 | 1016.2 |
| 20260902171651 | 96 | 215 | 1.0 | 4.0 | 0.00 | 0.00 | 0.00 | 51 | 1016.3 |
| 20260902171147 | 96 | 184 | 0.0 | 6.0 | 0.00 | 0.00 | 0.00 | 50 | 1016.1 |
| 20260902170643 | 96 | 262 | 2.0 | 4.0 | 0.00 | 0.00 | 0.00 | 51 | 1016.2 |
| 20260902170138 | 96 | 272 | 2.0 | 4.0 | 0.00 | 0.00 | 0.00 | 52 | 1016.1 |